Location: Dannhausen
(51.8650°N, 10.1026°E)
Time: 01:18:12
(UTC+00:00)

Cosmos 2341 Rocket - Pass Details

Date: 09 April 2020
Orbit: 968 x 1004 km, 82.9° (Epoch: 30 May)

Event Time Altitude Azimuth Distance (km) Brightness Sun altitude
Rises 18:56:42 0° 351° (N) 3,736 7.6 -8.0°
Reaches altitude 10° 18:59:18 10° 355° (N) 2,786 6.8 -8.4°
Maximum altitude 19:05:37 58° 75° (ENE) 1,159 4.2 -9.2°
Drops below altitude 10° 19:11:54 10° 154° (SSE) 2,774 5.9 -10.1°
Enters shadow 19:13:26 - 157° (SSE) 3,332 6.3 -10.3°
